Hundvaag 1 weather for Apr 1988
Month no. 10
Obs.
Da.
Temp. Dew Point Precip. Wind
Speed
Wind gusts Cloud cover Press. Humidity Wind dir. Sunny OPT
01.04.1988 5,4   5,5                
02.04.1988 4,7   0,0             1  
03.04.1988 1,9   0,9             1  
04.04.1988 0,4   0,1             1  
05.04.1988 3,3   0,0                
06.04.1988 5,4   0,0                
07.04.1988 6,2   0,0             1  
08.04.1988 1,7   2,6             1  
09.04.1988 -2,0   2,4             1  
10.04.1988 3,7   11,4             1  
11.04.1988 1,6   1,4             1  
12.04.1988 -1,3   0,1             1  
13.04.1988 0,7   0,1             1  
14.04.1988 1,0   0,0                
15.04.1988 2,8   0,0                
16.04.1988 7,1   3,0                
17.04.1988 8,5   18,0                
18.04.1988 3,1   2,5             1  
19.04.1988 3,3   0,1                
20.04.1988 5,1   1,5                
21.04.1988 4,7   10,2             1  
22.04.1988 1,2   0,2             1  
23.04.1988 0,9   0,0             1  
24.04.1988 1,8   1,6             1  
25.04.1988 -0,2   0,0             1  
26.04.1988 1,3   0,0             1  
27.04.1988 1,6   0,1             1  
28.04.1988 2,6   0,0             1  
29.04.1988 6,7   0,0                
30.04.1988 5,4   1,6                
                       
Avrg/Sum 3,0   63,3             19